Location: Seattle
(47.6064°N, 122.3308°W)
Time: 12:50:29
(UTC-07:00)

SEEDS - Pass Details

Date: 09 April 2023
Orbit: 568 x 587 km, 97.7° (Epoch: 30 May)

Event Time Altitude Azimuth Distance (km) Brightness Sun altitude
Rises 04:36:15 0° 21° (NNE) 2,836 ? -18.7°
Reaches altitude 10° 04:38:35 10° 30° (NNE) 1,928 ? -18.4°
Maximum altitude 04:42:25 34° 97° (E) 974 ? -17.8°
Drops below altitude 10° 04:46:12 10° 163° (SSE) 1,906 ? -17.3°
Enters shadow 04:47:33 - 169° (S) 2,419 ? -17.1°
